Time,TemperatureF,DewpointF,PressureIn,WindDirection,WindDirectionDegrees,WindSpeedMPH,WindSpeedGustMPH,Humidity,HourlyPrecipIn,Conditions,Clouds,dailyrainin,SoftwareType,DateUTC
2013-02-03 00:12:00,21.3,19.0,30.09,ENE,64,0.0,0.0,90,0.00,,,0.00,weatherlink.com 1.10,2013-02-03 05:12:00,
2013-02-03 00:26:00,21.3,19.0,30.08,ENE,63,0.0,0.0,90,0.00,,,0.00,weatherlink.com 1.10,2013-02-03 05:26:00,
2013-02-03 00:42:00,21.3,19.0,30.07,ENE,63,0.0,0.0,90,0.00,,,0.00,weatherlink.com 1.10,2013-02-03 05:42:00,
2013-02-03 00:57:00,21.5,19.0,30.07,ENE,64,0.0,0.0,90,0.00,,,0.00,weatherlink.com 1.10,2013-02-03 05:57:00,
2013-02-03 01:12:00,21.6,19.0,30.06,ENE,64,0.0,0.0,90,0.00,,,0.00,weatherlink.com 1.10,2013-02-03 06:12:00,
2013-02-03 01:27:00,21.6,19.0,30.05,ENE,63,0.0,0.0,90,0.00,,,0.00,weatherlink.com 1.10,2013-02-03 06:27:00,
2013-02-03 01:42:00,21.6,19.0,30.05,ENE,63,0.0,0.0,90,0.00,,,0.00,weatherlink.com 1.10,2013-02-03 06:42:00,
2013-02-03 01:57:00,21.6,19.0,30.05,ENE,64,0.0,0.0,90,0.00,,,0.00,weatherlink.com 1.10,2013-02-03 06:57:00,
2013-02-03 02:12:00,21.6,19.0,30.04,ENE,63,0.0,0.0,91,0.00,,,0.00,weatherlink.com 1.10,2013-02-03 07:12:00,
2013-02-03 02:27:00,21.4,19.0,30.03,ENE,64,0.0,0.0,90,0.00,,,0.00,weatherlink.com 1.10,2013-02-03 07:27:00,
2013-02-03 02:42:00,21.0,19.0,30.03,ENE,63,0.0,0.0,90,0.00,,,0.00,weatherlink.com 1.10,2013-02-03 07:42:00,
2013-02-03 02:57:00,20.8,19.0,30.02,ENE,64,0.0,0.0,91,0.00,,,0.00,weatherlink.com 1.10,2013-02-03 07:57:00,
2013-02-03 03:12:00,20.8,19.0,30.01,ENE,63,0.0,0.0,92,0.00,,,0.00,weatherlink.com 1.10,2013-02-03 08:12:00,
2013-02-03 03:27:00,20.9,19.0,30.01,ENE,63,0.0,0.0,92,0.00,,,0.00,weatherlink.com 1.10,2013-02-03 08:27:00,
2013-02-03 03:42:00,20.6,18.0,30.00,NE,54,0.0,0.0,91,0.00,,,0.00,weatherlink.com 1.10,2013-02-03 08:42:00,
2013-02-03 03:57:00,20.4,18.0,30.00,NE,54,0.0,0.0,91,0.00,,,0.00,weatherlink.com 1.10,2013-02-03 08:57:00,
2013-02-03 04:12:00,20.5,19.0,29.99,NE,54,0.0,0.0,92,0.00,,,0.00,weatherlink.com 1.10,2013-02-03 09:12:00,
2013-02-03 04:27:00,20.6,19.0,29.99,NE,54,0.0,1.0,92,0.00,,,0.00,weatherlink.com 1.10,2013-02-03 09:27:00,
2013-02-03 04:42:00,20.7,19.0,29.98,NE,54,0.0,0.0,92,0.00,,,0.00,weatherlink.com 1.10,2013-02-03 09:42:00,
2013-02-03 04:57:00,20.7,19.0,29.98,ENE,70,0.0,1.0,92,0.00,,,0.00,weatherlink.com 1.10,2013-02-03 09:57:00,
2013-02-03 05:12:00,20.9,19.0,29.98,ENE,75,0.0,1.0,92,0.00,,,0.00,weatherlink.com 1.10,2013-02-03 10:12:00,
2013-02-03 05:27:00,20.9,19.0,29.98,NNE,31,0.0,1.0,91,0.00,,,0.00,weatherlink.com 1.10,2013-02-03 10:27:00,
2013-02-03 05:42:00,20.9,19.0,29.98,NNE,32,0.0,0.0,91,0.00,,,0.00,weatherlink.com 1.10,2013-02-03 10:42:00,
2013-02-03 05:58:00,20.8,19.0,29.98,NE,39,0.0,1.0,91,0.00,,,0.00,weatherlink.com 1.10,2013-02-03 10:58:00,
2013-02-03 06:12:00,20.8,18.0,29.98,NNE,22,0.0,3.0,90,0.00,,,0.00,weatherlink.com 1.10,2013-02-03 11:12:00,
2013-02-03 06:27:00,20.9,19.0,29.98,NNE,22,0.0,0.0,90,0.00,,,0.00,weatherlink.com 1.10,2013-02-03 11:27:00,
2013-02-03 06:57:00,20.8,18.0,29.99,NNE,22,0.0,0.0,88,0.00,,,0.00,weatherlink.com 1.10,2013-02-03 11:57:00,
2013-02-03 07:12:00,20.9,18.0,30.00,NNE,22,0.0,1.0,87,0.00,,,0.00,weatherlink.com 1.10,2013-02-03 12:12:00,
2013-02-03 07:28:00,20.9,17.0,30.00,NNE,22,0.0,1.0,86,0.00,,,0.00,weatherlink.com 1.10,2013-02-03 12:28:00,
2013-02-03 07:42:00,21.0,18.0,29.99,NNE,22,0.0,1.0,86,0.00,,,0.00,weatherlink.com 1.10,2013-02-03 12:42:00,
2013-02-03 07:57:00,21.3,18.0,30.00,West,260,0.0,2.0,85,0.00,,,0.00,weatherlink.com 1.10,2013-02-03 12:57:00,
2013-02-03 08:12:00,21.6,18.0,30.00,North,10,0.0,1.0,85,0.00,,,0.00,weatherlink.com 1.10,2013-02-03 13:12:00,
2013-02-03 08:28:00,21.7,18.0,29.99,NNE,19,0.0,1.0,84,0.00,,,0.00,weatherlink.com 1.10,2013-02-03 13:28:00,
2013-02-03 08:42:00,21.5,17.0,29.99,ENE,77,0.0,1.0,83,0.00,,,0.00,weatherlink.com 1.10,2013-02-03 13:42:00,
2013-02-03 08:57:00,21.7,17.0,29.99,NNE,23,0.0,1.0,83,0.00,,,0.00,weatherlink.com 1.10,2013-02-03 13:57:00,
2013-02-03 09:12:00,22.4,18.0,29.98,NNE,26,0.0,1.0,84,0.00,,,0.00,weatherlink.com 1.10,2013-02-03 14:12:00,
2013-02-03 09:27:00,22.9,18.0,29.98,North,357,0.0,2.0,82,0.00,,,0.00,weatherlink.com 1.10,2013-02-03 14:27:00,
2013-02-03 09:42:00,23.2,18.0,29.98,SE,136,1.0,1.0,81,0.00,,,0.00,weatherlink.com 1.10,2013-02-03 14:42:00,
2013-02-03 09:57:00,23.8,19.0,29.97,North,1,0.0,1.0,80,0.00,,,0.00,weatherlink.com 1.10,2013-02-03 14:57:00,
2013-02-03 10:13:00,24.0,18.0,29.97,South,173,0.0,2.0,79,0.00,,,0.00,weatherlink.com 1.10,2013-02-03 15:13:00,
2013-02-03 10:28:00,24.4,19.0,29.97,SSE,158,0.0,1.0,80,0.00,,,0.00,weatherlink.com 1.10,2013-02-03 15:28:00,
2013-02-03 10:43:00,24.9,19.0,29.96,ESE,120,0.0,1.0,78,0.00,,,0.00,weatherlink.com 1.10,2013-02-03 15:43:00,
2013-02-03 10:58:00,24.7,19.0,29.96,NE,49,0.0,1.0,78,0.00,,,0.00,weatherlink.com 1.10,2013-02-03 15:58:00,
2013-02-03 11:13:00,25.5,20.0,29.95,NE,35,0.0,1.0,78,0.00,,,0.00,weatherlink.com 1.10,2013-02-03 16:13:00,
2013-02-03 11:28:00,25.2,19.0,29.94,SSE,160,1.0,2.0,78,0.00,,,0.00,weatherlink.com 1.10,2013-02-03 16:28:00,
2013-02-03 11:43:00,25.4,19.0,29.93,North,360,0.0,2.0,78,0.00,,,0.00,weatherlink.com 1.10,2013-02-03 16:43:00,
2013-02-03 11:58:00,26.3,20.0,29.91,North,11,1.0,2.0,76,0.00,,,0.00,weatherlink.com 1.10,2013-02-03 16:58:00,
2013-02-03 12:13:00,26.7,19.0,29.91,SSW,193,0.0,2.0,74,0.00,,,0.00,weatherlink.com 1.10,2013-02-03 17:13:00,
2013-02-03 12:28:00,27.0,20.0,29.90,NNW,347,1.0,2.0,74,0.00,,,0.00,weatherlink.com 1.10,2013-02-03 17:28:00,
2013-02-03 12:43:00,27.2,20.0,29.89,NNE,27,0.0,2.0,73,0.00,,,0.00,weatherlink.com 1.10,2013-02-03 17:43:00,
2013-02-03 12:58:00,27.7,20.0,29.88,NNW,345,1.0,2.0,73,0.00,,,0.00,weatherlink.com 1.10,2013-02-03 17:58:00,
2013-02-03 13:13:00,27.5,19.0,29.88,NNE,16,0.0,1.0,71,0.00,,,0.00,weatherlink.com 1.10,2013-02-03 18:13:00,
2013-02-03 13:28:00,29.0,21.0,29.87,ENE,65,0.0,2.0,71,0.00,,,0.00,weatherlink.com 1.10,2013-02-03 18:28:00,
2013-02-03 13:43:00,28.5,20.0,29.86,SE,126,1.0,2.0,71,0.00,,,0.00,weatherlink.com 1.10,2013-02-03 18:43:00,
2013-02-03 13:58:00,29.8,21.0,29.86,SE,134,0.0,2.0,69,0.00,,,0.00,weatherlink.com 1.10,2013-02-03 18:58:00,
2013-02-03 14:13:00,30.6,20.0,29.85,South,173,1.0,3.0,66,0.00,,,0.00,weatherlink.com 1.10,2013-02-03 19:13:00,
2013-02-03 14:28:00,31.6,21.0,29.84,SSE,157,2.0,2.0,65,0.00,,,0.00,weatherlink.com 1.10,2013-02-03 19:28:00,
2013-02-03 14:43:00,29.6,19.0,29.84,East,94,0.0,3.0,65,0.01,,,0.01,weatherlink.com 1.10,2013-02-03 19:43:00,
2013-02-03 14:59:00,30.1,20.0,29.84,ESE,123,0.0,3.0,65,0.01,,,0.01,weatherlink.com 1.10,2013-02-03 19:59:00,
2013-02-03 15:13:00,31.1,20.0,29.84,ESE,121,2.0,3.0,63,0.01,,,0.01,weatherlink.com 1.10,2013-02-03 20:13:00,
2013-02-03 15:29:00,30.7,20.0,29.84,South,183,1.0,3.0,64,0.01,,,0.01,weatherlink.com 1.10,2013-02-03 20:29:00,
2013-02-03 15:44:00,29.6,18.0,29.84,ESE,121,3.0,3.0,63,0.00,,,0.01,weatherlink.com 1.10,2013-02-03 20:44:00,
2013-02-03 15:59:00,28.3,18.0,29.84,ESE,122,1.0,2.0,65,0.00,,,0.01,weatherlink.com 1.10,2013-02-03 20:59:00,
2013-02-03 16:14:00,27.4,19.0,29.84,SE,126,1.0,3.0,70,0.00,,,0.01,weatherlink.com 1.10,2013-02-03 21:14:00,
2013-02-03 16:29:00,26.9,17.0,29.83,South,172,0.0,2.0,67,0.00,,,0.01,weatherlink.com 1.10,2013-02-03 21:29:00,
2013-02-03 16:44:00,26.6,17.0,29.83,SE,136,0.0,2.0,68,0.00,,,0.01,weatherlink.com 1.10,2013-02-03 21:44:00,
2013-02-03 16:59:00,26.2,17.0,29.84,SSW,205,1.0,2.0,67,0.00,,,0.01,weatherlink.com 1.10,2013-02-03 21:59:00,
2013-02-03 17:14:00,25.7,17.0,29.84,SSE,151,1.0,2.0,70,0.00,,,0.01,weatherlink.com 1.10,2013-02-03 22:14:00,
2013-02-03 17:29:00,25.2,17.0,29.84,South,183,1.0,2.0,70,0.00,,,0.01,weatherlink.com 1.10,2013-02-03 22:29:00,
2013-02-03 17:44:00,24.7,17.0,29.84,SE,124,0.0,2.0,71,0.00,,,0.01,weatherlink.com 1.10,2013-02-03 22:44:00,
2013-02-03 17:59:00,24.2,16.0,29.84,SE,125,0.0,0.0,72,0.00,,,0.01,weatherlink.com 1.10,2013-02-03 22:59:00,
2013-02-03 18:14:00,23.4,17.0,29.84,SE,125,0.0,0.0,75,0.00,,,0.01,weatherlink.com 1.10,2013-02-03 23:14:00,
2013-02-03 18:29:00,22.7,17.0,29.85,SE,125,0.0,0.0,77,0.00,,,0.01,weatherlink.com 1.10,2013-02-03 23:29:00,
2013-02-03 18:44:00,22.1,16.0,29.85,SE,126,0.0,0.0,77,0.00,,,0.01,weatherlink.com 1.10,2013-02-03 23:44:00,
2013-02-03 18:59:00,22.0,16.0,29.86,SE,125,0.0,0.0,77,0.00,,,0.01,weatherlink.com 1.10,2013-02-03 23:59:00,
2013-02-03 19:14:00,21.7,16.0,29.86,SE,125,0.0,0.0,78,0.00,,,0.01,weatherlink.com 1.10,2013-02-04 00:14:00,
2013-02-03 19:29:00,21.5,16.0,29.85,SE,125,0.0,0.0,78,0.00,,,0.01,weatherlink.com 1.10,2013-02-04 00:29:00,
2013-02-03 19:44:00,21.2,16.0,29.86,SE,125,0.0,0.0,79,0.00,,,0.01,weatherlink.com 1.10,2013-02-04 00:44:00,
2013-02-03 19:59:00,21.0,16.0,29.86,SE,125,0.0,0.0,80,0.00,,,0.01,weatherlink.com 1.10,2013-02-04 00:59:00,
2013-02-03 20:14:00,21.0,16.0,29.86,SE,125,0.0,0.0,80,0.00,,,0.01,weatherlink.com 1.10,2013-02-04 01:14:00,
2013-02-03 20:29:00,20.9,16.0,29.86,SE,125,0.0,0.0,81,0.00,,,0.01,weatherlink.com 1.10,2013-02-04 01:29:00,
2013-02-03 20:44:00,21.9,17.0,29.86,SE,125,0.0,1.0,81,0.00,,,0.01,weatherlink.com 1.10,2013-02-04 01:44:00,
2013-02-03 20:59:00,22.7,17.0,29.86,SE,125,0.0,1.0,80,0.00,,,0.01,weatherlink.com 1.10,2013-02-04 01:59:00,
2013-02-03 21:14:00,22.4,17.0,29.86,SE,125,0.0,0.0,79,0.00,,,0.01,weatherlink.com 1.10,2013-02-04 02:14:00,
2013-02-03 21:29:00,22.4,17.0,29.86,SE,125,0.0,1.0,79,0.00,,,0.01,weatherlink.com 1.10,2013-02-04 02:29:00,
2013-02-03 21:44:00,22.9,17.0,29.86,SE,125,0.0,1.0,79,0.00,,,0.01,weatherlink.com 1.10,2013-02-04 02:44:00,
2013-02-03 21:59:00,22.8,17.0,29.86,SE,125,0.0,0.0,79,0.00,,,0.01,weatherlink.com 1.10,2013-02-04 02:59:00,
2013-02-03 22:14:00,23.1,18.0,29.86,SE,126,0.0,1.0,79,0.00,,,0.01,weatherlink.com 1.10,2013-02-04 03:14:00,
2013-02-03 22:29:00,23.7,18.0,29.86,SE,125,0.0,1.0,78,0.00,,,0.01,weatherlink.com 1.10,2013-02-04 03:29:00,
2013-02-03 22:44:00,23.7,18.0,29.86,SE,126,0.0,1.0,77,0.00,,,0.01,weatherlink.com 1.10,2013-02-04 03:44:00,
2013-02-03 22:59:00,23.5,18.0,29.85,ENE,77,0.0,1.0,78,0.00,,,0.01,weatherlink.com 1.10,2013-02-04 03:59:00,
2013-02-03 23:14:00,23.5,18.0,29.85,ESE,122,0.0,1.0,79,0.00,,,0.01,weatherlink.com 1.10,2013-02-04 04:14:00,
2013-02-03 23:29:00,23.2,18.0,29.85,ESE,120,0.0,2.0,79,0.00,,,0.01,weatherlink.com 1.10,2013-02-04 04:29:00,
2013-02-03 23:44:00,23.3,18.0,29.86,South,173,1.0,2.0,81,0.00,,,0.01,weatherlink.com 1.10,2013-02-04 04:44:00,
2013-02-03 23:59:00,23.5,19.0,29.86,South,191,1.0,3.0,82,0.00,,,0.01,weatherlink.com 1.10,2013-02-04 04:59:00,